Location: Bu�n Treun
(12.1333°N, 108.3167°E)
Time: 12:59:09
(UTC+00:00)

SL-4 R/B - Pass Details

Date: 13 July 2020
Orbit: 428 x 666 km, 51.6° (Epoch: 06 August)

Event Time Altitude Azimuth Distance (km) Brightness Sun altitude
Exits shadow 20:27:35 22° 85° (E) 981 3.9 -27.4°
Drops below altitude 10° 20:29:17 10° 62° (ENE) 1,519 5.3 -27.0°
Sets 20:31:30 0° 51° (NE) 2,376 6.6 -26.6°
